Vancouver, British Columbia

8:59 PM PDT on September 21, 2017 (GMT -0700)
Vancouver International Airport

Weather History for CYVR - April, 2013

Change the Weather History Date:

Monday, April 1, 2013

  Actual Average Record
Temperature  
Mean Temperature 50 °F -  
Max Temperature 59 °F 55 °F 63 °F (2016)
Min Temperature 41 °F 41 °F 30 °F (2008)
Degree Days  
Heating Degree Days 15    
Moisture  
Dew Point 44 °F    
Average Humidity 75    
Maximum Humidity 93    
Minimum Humidity 57    
Precipitation  
Precipitation 0.00 in 0.10 in - ()
Sea Level Pressure  
Sea Level Pressure 30.05 in    
Wind  
Wind Speed 7 mph ()    
Max Wind Speed 15 mph    
Max Gust Speed -    
Visibility 19.8 miles    
Events      
Averages and records for this station are not official NWS values.
T = Trace of Precipitation, MM = Missing Value Source: Averaged Metar Reports

Daily Weather History Graph

Daily Weather History Graph

Search for Another Location

Airport or City:

Trip Planner

Search our weather history database for the weather conditions in past years. The results will help you decide how hot, cold, wet, or windy it might be!

Date:

Astronomy

Apr. 01, 2013 Rise Set
Actual Time 6:49 AM PDT 7:44 PM PDT
Civil Twilight 6:17 AM PDT 8:16 PM PDT
Nautical Twilight 5:38 AM PDT 8:55 PM PDT
Astronomical Twilight 4:57 AM PDT 9:36 PM PDT
Moon 1:21 AM PDT (4/1) 10:18 AM PDT (4/1)
Length of Visible Light 13h 59m
Length of Day
12h 55m
Waning Gibbous, 66% of the Moon is Illuminated
Apr 1
Waning Gibbous
Apr 2
Last Quarter
Apr 10
New
Apr 18
First Quarter
Apr 25
Full

Hourly Weather History & Observations

Time (PDT) Temp. Windchill Dew Point Humidity Pressure Visibility Wind Dir Wind Speed Gust Speed Precip Events Conditions
12:00 AM 48.2 °F - 46.4 °F 93% 29.96 in 20.0 mi West 3.5 mph - N/A   Clear
1:00 AM 48.2 °F - 44.6 °F 87% 29.97 in 20.0 mi Calm Calm - N/A   Clear
2:00 AM 46.4 °F 43.5 °F 42.8 °F 87% 29.98 in 20.0 mi East 5.8 mph - N/A   Clear
3:00 AM 44.6 °F 40.7 °F 42.8 °F 93% 29.99 in 20.0 mi East 6.9 mph - N/A   Clear
4:00 AM 44.6 °F 42.2 °F 42.8 °F 93% 30.00 in 20.0 mi East 4.6 mph - N/A   Clear
5:00 AM 44 °F - 40 °F 79% 30.00 in 19 mi ESE 6.9 mph - -  
5:00 AM 44.6 °F 40.2 °F 39.2 °F 81% 30.00 in 20.0 mi East 8.1 mph - N/A   Clear
6:00 AM 42.8 °F 38.6 °F 39.2 °F 87% 30.01 in 20.0 mi East 6.9 mph - N/A   Clear
7:00 AM 42.8 °F 38.0 °F 39.2 °F 87% 30.02 in 30.0 mi East 8.1 mph - N/A   Partly Cloudy
8:00 AM 46.4 °F 41.9 °F 41.0 °F 81% 30.03 in 30.0 mi East 9.2 mph - N/A   Partly Cloudy
9:00 AM 51.8 °F - 42.8 °F 71% 30.05 in 30.0 mi SE 11.5 mph - N/A   Partly Cloudy
10:00 AM 55.4 °F - 44.6 °F 67% 30.06 in 30.0 mi ESE 12.7 mph - N/A   Partly Cloudy
11:00 AM 56 °F - 45 °F 57% 30.06 in 28 mi SE 15.0 mph - -   Clear
11:00 AM 57.2 °F - 44.6 °F 63% 30.06 in 30.0 mi SE 15.0 mph - N/A   Partly Cloudy
12:00 PM 57.2 °F - 46.4 °F 67% 30.08 in 30.0 mi ESE 13.8 mph - N/A   Partly Cloudy
1:00 PM 57.2 °F - 46.4 °F 67% 30.08 in 30.0 mi SE 11.5 mph - N/A   Scattered Clouds
2:00 PM 59.0 °F - 46.4 °F 63% 30.08 in 30.0 mi SSE 10.4 mph - N/A   Mostly Cloudy
3:00 PM 59.0 °F - 46.4 °F 63% 30.08 in 30.0 mi SE 10.4 mph - N/A   Partly Cloudy
4:00 PM 57.2 °F - 46.4 °F 67% 30.07 in 30.0 mi SE 10.4 mph - N/A   Partly Cloudy
5:00 PM 58 °F - 47 °F 57% 30.07 in 28 mi SE 10.4 mph - -   Clear
5:00 PM 57.2 °F - 46.4 °F 67% 30.07 in 30.0 mi SE 10.4 mph - N/A   Partly Cloudy
6:00 PM 57.2 °F - 46.4 °F 67% 30.07 in 30.0 mi SE 8.1 mph - N/A   Partly Cloudy
7:00 PM 55.4 °F - 44.6 °F 67% 30.08 in 30.0 mi SE 10.4 mph - N/A   Partly Cloudy
8:00 PM 51.8 °F - 44.6 °F 76% 30.09 in 30.0 mi East 11.5 mph - N/A   Partly Cloudy
9:00 PM 51.8 °F - 44.6 °F 76% 30.10 in 30.0 mi East 12.7 mph - N/A   Partly Cloudy
10:00 PM 51.8 °F - 44.6 °F 76% 30.12 in 20.0 mi ESE 9.2 mph - N/A   Scattered Clouds
11:00 PM 49 °F - 45 °F 80% 30.12 in 19 mi East 10.4 mph - -   Scattered Clouds
11:00 PM 50.0 °F - 44.6 °F 82% 30.12 in 20.0 mi East 10.4 mph - N/A   Partly Cloudy